Presure
216 158 213 168 173 184 160 223 176 185 207 204 201 196 185 180 197 164 173 194 186 159 210 209 204 193 212 169 199 199 197 207 183 205 212 222 234 226 218 216 171 217 160 137
210 183 181 201 182 200 194 202 190 206 176 204 208 202 196 196 195 191 181 190 208 208 208 191 197 207 175 211 212 211 206 202 203 202 221 216 225 226 219 227 223 225 192 161
213 208 164 166 166 194 171 219 211 204 200 184 190 195 195 134 192 191 201 200 171 202 195 203 212 214 189 226 220 224 235 230 248 223 226 121 243 111 222 182 97 195 215 227
178 193 208 162 167 166 182 231 200 203 205 198 189 182 183 192 187 195 191 204 198 208 207 184 208 207 212 229 258 233 249 247 163 223 200 240 210 225 244 72 145 230 109 239
165 195 193 167 191 192 230 232 234 219 209 200 199 200 207 179 205 202 200 210 212 210 212 212 217 229 223 210 278 264 122 234 127 397 422 454 343 320 181 257 96 247 219 243
198 211 201 209 195 206 203 226 229 229 182 211 180 216 214 207 206 208 205 219 225 145 217 219 224 234 243 282 302 187 235 377 204 368 333 213 301 129 334 322 99 302 242 180
186 186 161 207 191 205 222 219 212 210 220 218 221 218 209 208 213 219 132 216 219 226 233 235 243 261 122 299 213 305 256 245 332 225 75 270 326 352 268 368 310 209 194 258
201 200 206 210 206 209 196 215 223 222 227 224 224 224 215 217 213 216 228 236 240 235 252 260 281 285 287 291 287 348 330 311 324 302 295 296 304 308 293 311 86 166 228 122
212 210 214 218 226 210 220 229 223 206 216 227 224 232 231 229 232 232 232 185 238 259 262 251 260 266 281 284 378 327 307 200 286 280 298 285 77 282 292 309 296 295 201 279
210 207 210 213 221 228 223 227 220 215 218 223 233 226 232 192 215 208 235 174 257 266 238 198 271 272 214 344 326 318 291 219 265 267 276 273 172 277 187 288 365 339 349 210
220 227 232 229 219 227 222 216 223 219 215 220 233 230 225 220 217 228 237 225 255 159 265 157 272 275 287 342 328 291 297 267 268 266 271 269 257 267 252 79 189 383 442 347
227 217 218 231 226 220 223 215 225 217 218 219 232 220 226 228 244 247 241 259 244 93 264 264 271 273 336 328 303 285 267 263 271 247 264 258 254 271 296 345 413 382 397 426
240 237 237 226 223 226 219 220 145 227 232 235 225 222 224 228 226 231 244 254 258 258 260 263 277 353 328 318 301 276 262 271 256 255 279 265 284 249 312 336 377 314 462 452
242 235 232 229 232 226 224 187 230 219 222 230 228 223 232 234 239 259 255 260 255 257 261 281 354 348 315 307 290 278 261 252 249 256 250 282 302 294 316 358 373 369 411 342
252 241 236 233 227 179 224 226 229 175 223 219 230 233 237 238 260 249 251 255 255 257 275 308 331 346 313 300 281 276 262 258 250 248 250 276 293 298 298 314 356 322 347 274
257 244 239 241 236 229 232 231 228 229 228 228 235 234 260 253 249 252 254 252 253 272 313 292 315 339 310 298 281 276 260 252 234 271 272 262 290 281 288 305 334 325 333 227
262 252 248 243 243 238 235 237 233 231 232 233 241 255 246 246 246 251 252 249 262 314 305 290 329 333 306 285 297 271 258 254 253 268 274 262 279 275 281 285 322 250 275 229
275 275 266 261 262 263 251 253 250 251 248 246 250 242 240 237 245 246 245 249 306 302 295 292 325 327 328 293 291 278 261 261 267 261 265 265 271 263 267 275 294 238 231 206
253 252 249 254 258 252 248 253 251 253 247 242 237 238 233 240 245 234 244 272 309 298 285 284 288 317 340 316 287 274 274 262 269 261 267 265 268 263 279 285 281 237 215 204
259 253 249 253 251 256 248 246 242 239 233 233 231 241 242 240 228 233 290 310 302 293 280 274 284 287 289 347 303 293 269 262 249 268 265 268 268 281 248 285 239 220 215 204
255 254 254 250 257 235 240 242 235 231 226 232 238 234 247 238 239 266 289 297 286 281 280 276 295 306 289 302 341 290 294 258 253 239 274 273 272 262 269 227 217 216 202 196
247 248 246 243 235 231 236 228 228 225 229 231 236 242 234 225 248 287 290 282 289 294 290 292 296 303 303 291 294 335 304 276 265 245 268 270 272 268 227 219 216 207 204 211
236 230 226 231 226 228 224 224 222 227 228 238 229 226 239 253 276 285 295 297 289 287 289 381 381 298 302 303 277 306 322 325 266 260 263 274 270 268 234 232 214 226 237 208
231 231 228 230 228 227 224 226 233 226 238 222 225 239 257 275 283 307 290 283 390 370 362 365 369 370 373 307 300 273 296 312 287 274 273 249 286 244 256 239 227 213 228 221
227 224 222 228 229 230 230 231 232 237 221 232 238 258 276 281 303 277 327 361 341 349 347 347 381 360 357 362 369 301 300 304 306 342 274 265 226 219 247 240 239 224 231 218
228 228 221 234 232 221 230 230 241 225 229 240 259 275 276 292 274 363 334 315 332 342 335 333 336 341 346 350 354 361 371 372 307 296 330 303 268 241 248 223 246 238 221 226
Wind_Speed
90 72 77 71 70 63 67 65 67 71 63 66 70 74 73 76 72 66 72 78 78 68 77 80 86 84 86 64 83 83 80 92 72 93 94 91 94 88 82 77 69 66 66 53
86 74 71 71 66 69 67 67 72 68 76 69 67 67 70 70 73 77 70 72 79 81 82 82 85 88 80 95 96 97 92 86 85 82 98 94 90 83 77 86 81 79 75 70
94 84 67 65 68 63 71 70 74 72 75 78 75 69 71 52 75 81 80 78 69 82 80 86 93 96 81 100 96 100 101 89 98 100 98 52 100 35 73 64 28 75 67 76
62 80 86 67 78 69 72 72 73 74 78 81 76 73 69 76 79 80 79 87 81 88 88 75 89 89 92 98 100 101 96 95 72 88 82 97 84 83 94 11 56 75 30 79
74 81 75 78 78 72 67 70 73 78 83 81 85 83 83 71 91 87 84 89 90 89 91 91 94 97 96 87 104 98 32 93 42 51 50 46 81 85 62 96 29 85 77 66
93 99 89 92 83 74 79 74 72 77 81 83 71 92 88 90 91 90 87 92 93 50 93 94 98 101 99 95 83 58 87 49 51 40 40 29 36 53 82 85 35 88 74 49
93 84 74 92 86 90 79 79 81 79 80 84 93 93 89 92 93 97 48 91 93 99 104 105 106 86 42 78 56 75 54 43 42 49 18 36 39 41 35 58 82 71 56 76
99 100 101 96 91 88 88 87 84 82 80 82 91 94 93 96 94 95 102 105 104 90 92 89 81 78 76 74 72 51 48 47 38 37 40 40 41 42 47 49 23 68 79 57
107 100 101 99 97 92 92 84 83 80 82 84 86 89 91 96 98 97 97 69 91 93 88 85 71 74 77 67 39 48 42 31 39 44 40 42 16 55 60 64 67 75 49 59
105 97 101 98 97 92 88 86 84 85 84 82 84 83 87 74 81 78 90 72 91 85 79 57 77 76 56 54 48 43 43 31 45 43 45 51 37 54 45 56 67 59 84 57
112 111 102 100 94 87 88 82 85 87 85 83 83 81 85 81 82 90 92 83 87 59 81 49 79 76 67 47 37 45 41 40 40 43 48 53 44 47 53 32 38 50 59 83
103 103 101 91 92 91 87 88 87 88 88 84 89 84 86 84 94 88 87 87 83 33 79 77 75 73 44 43 37 40 37 41 36 43 49 51 47 53 47 41 36 41 47 64
89 90 87 92 91 91 91 89 46 88 89 88 84 81 80 85 85 88 89 85 80 78 76 74 67 37 38 38 38 36 38 40 37 38 37 51 50 30 26 38 14 29 20 25
84 85 87 89 92 93 91 67 88 82 82 89 89 83 93 86 86 81 81 77 77 73 75 68 42 35 37 36 39 37 38 36 34 38 39 39 20 19 25 34 9 11 10 45
81 85 86 89 90 64 90 88 87 67 82 80 89 87 86 84 76 77 77 75 70 72 72 56 43 35 37 37 40 40 39 37 35 34 35 33 19 19 15 16 8 13 22 78
73 79 84 87 88 88 89 86 85 85 84 82 84 84 70 68 73 71 72 67 66 69 52 49 42 38 39 37 44 41 41 35 32 36 33 24 24 12 8 14 17 20 25 92
60 72 77 78 80 86 82 87 86 87 84 82 79 63 65 68 68 68 66 62 66 51 47 45 40 38 39 42 39 44 40 37 34 35 28 23 19 15 4 16 18 73 73 109
44 44 47 57 60 61 68 65 66 64 67 56 53 59 62 65 64 65 61 61 58 49 44 43 39 40 41 42 39 47 44 38 41 37 31 25 22 31 28 31 23 89 93 105
43 48 47 47 45 45 47 48 48 46 47 50 55 56 59 61 63 60 62 69 50 47 43 41 41 37 40 44 44 48 47 41 40 40 37 31 24 37 33 31 51 98 102 102
39 33 34 37 37 40 43 39 41 43 48 50 53 56 55 58 56 59 64 49 46 46 46 41 40 40 40 39 47 44 47 43 35 46 42 38 33 30 62 38 105 107 107 100
33 32 32 33 27 36 40 35 38 41 46 50 52 52 59 55 61 68 58 48 49 49 48 48 45 43 41 38 39 47 50 44 41 40 46 43 43 57 52 95 96 107 101 95
29 27 23 22 28 36 33 33 37 40 45 47 53 54 54 56 65 61 54 52 50 49 49 48 47 45 44 42 39 38 50 56 47 43 51 52 58 58 97 96 101 96 67 111
24 26 27 26 29 31 33 36 36 43 43 50 47 48 59 65 64 57 54 52 49 50 51 45 43 46 44 42 40 39 39 48 53 45 58 58 64 70 92 97 103 114 116 84
23 23 24 27 28 31 33 38 41 41 48 41 46 56 64 62 58 56 53 54 43 38 37 35 34 32 31 40 40 38 38 38 53 56 59 80 64 93 91 114 103 78 121 108
23 23 25 30 29 31 35 39 40 44 40 46 55 62 60 56 55 51 47 36 36 32 28 27 21 21 22 22 24 38 37 37 35 40 56 81 62 51 90 114 117 91 123 100
25 27 25 32 31 29 35 36 43 39 43 53 56 57 55 53 50 34 33 34 30 23 21 20 19 17 16 16 16 18 20 23 35 35 39 70 70 83 79 89 112 117 78 113
Wind_Direction
284 263 279 261 262 269 270 281 271 270 268 265 262 264 268 271 271 263 272 273 275 261 278 277 276 276 275 272 275 273 271 270 264 273 274 275 271 268 268 269 232 261 254 260
283 263 272 277 268 271 277 281 274 273 270 271 269 264 265 268 271 271 273 274 276 276 276 275 276 276 273 273 274 273 272 271 274 274 274 273 273 272 268 269 267 263 258 256
281 281 265 261 264 278 270 271 275 275 274 269 271 271 273 274 271 272 275 276 278 275 274 276 277 277 278 278 277 276 273 272 270 271 272 245 266 268 268 268 267 254 254 251
260 276 283 268 263 270 266 267 271 271 268 272 272 272 275 273 274 276 276 275 276 275 277 276 277 278 278 281 283 277 278 273 263 274 272 271 268 269 266 243 257 260 246 257
259 280 277 261 278 277 277 273 267 264 265 269 270 269 269 276 271 273 275 275 276 279 280 279 280 283 281 276 289 287 267 277 275 278 277 272 257 255 265 261 260 258 245 248
274 275 278 280 276 271 277 276 268 266 270 268 266 270 270 272 273 276 278 280 282 281 283 283 284 287 289 291 291 281 282 284 256 283 274 278 270 247 249 246 266 249 249 246
266 270 259 277 273 278 277 272 273 269 267 266 266 268 272 275 277 277 263 281 283 285 287 287 289 289 245 295 287 296 277 276 271 258 285 272 266 265 258 250 244 246 244 243
271 273 274 276 275 275 271 274 271 269 268 265 267 267 271 274 278 280 281 282 284 289 292 294 298 296 298 302 297 281 281 283 285 279 281 273 265 254 249 248 266 251 248 271
268 271 273 275 277 276 277 271 271 277 275 272 273 272 271 273 276 278 282 278 289 296 296 295 299 298 302 300 290 276 271 277 283 282 286 267 284 261 259 251 247 244 251 245
268 268 270 273 275 274 270 270 273 274 274 276 276 276 277 271 280 283 286 279 296 299 295 297 300 301 296 297 283 267 270 270 276 279 275 268 277 275 275 268 260 254 242 250
264 266 269 269 271 268 270 274 273 273 276 279 279 277 278 279 281 287 292 292 297 277 301 290 302 303 298 291 269 263 264 265 272 274 276 279 278 278 285 273 268 252 245 236
261 263 265 265 266 270 271 272 272 274 275 279 277 278 282 285 290 293 294 299 298 266 301 302 303 300 286 288 266 262 265 267 266 272 277 283 288 281 284 328 269 275 258 250
255 258 258 262 265 268 268 271 264 272 273 278 277 281 286 288 289 290 294 295 298 299 300 302 299 284 277 281 251 263 261 261 270 276 276 274 272 277 304 332 321 292 284 282
248 251 254 256 259 263 267 266 271 274 278 279 280 283 287 291 292 292 293 295 297 299 301 299 287 282 271 272 249 255 259 257 270 273 274 276 305 307 333 331 294 275 272 189
241 243 247 249 254 260 264 268 270 268 275 279 279 282 288 291 289 291 293 294 300 301 301 298 287 282 264 266 252 250 256 258 267 270 276 275 296 317 317 346 250 201 215 183
240 242 244 247 250 257 261 265 269 272 274 278 282 287 286 285 288 290 293 300 300 303 298 295 287 281 262 263 248 245 255 255 254 270 268 279 320 274 291 326 320 230 226 188
235 239 243 248 251 254 260 263 267 271 276 279 282 281 282 284 288 293 299 300 305 303 298 295 285 282 261 259 252 243 250 252 258 255 255 244 309 218 291 256 311 171 164 179
227 232 238 243 247 256 260 265 270 273 276 274 276 279 282 288 293 298 299 303 305 302 298 295 293 281 271 256 256 240 245 250 252 245 242 239 255 206 201 206 247 178 180 188
229 233 249 253 254 258 267 264 261 263 267 273 276 281 287 292 297 295 300 305 301 297 298 293 289 290 278 259 255 244 241 242 244 236 232 231 238 206 234 230 183 177 185 195
230 245 250 252 257 251 249 249 258 263 269 275 281 287 292 296 293 296 306 304 299 297 295 295 289 283 284 277 254 249 241 239 228 230 225 227 219 230 192 228 179 186 190 201
230 239 236 234 228 242 248 251 258 268 276 285 288 295 298 298 300 307 307 302 299 297 294 293 288 283 276 276 277 250 245 240 227 218 226 218 212 196 203 184 187 189 197 209
209 216 215 219 230 242 256 264 269 276 284 290 295 296 299 295 302 307 305 301 298 295 292 288 285 280 277 271 269 272 249 238 235 226 223 215 200 191 189 191 191 203 215 207
204 216 226 232 245 255 263 269 278 284 289 292 293 296 301 303 306 306 305 303 300 295 291 295 292 280 276 273 267 265 265 250 238 232 210 217 200 192 198 198 205 200 200 222
223 232 241 247 256 264 273 280 280 286 291 290 296 303 304 307 308 310 306 303 303 303 301 300 296 293 292 272 269 265 262 263 246 232 220 201 220 203 196 200 208 226 209 217
241 250 258 263 268 272 277 282 287 293 292 300 305 307 310 309 311 307 305 303 305 308 308 310 316 305 301 300 298 268 265 262 262 264 232 214 220 243 211 205 207 223 214 227
247 254 271 270 273 276 284 289 294 296 302 306 309 312 310 312 310 302 302 305 308 311 313 316 320 325 329 329 327 322 318 305 264 255 259 237 226 222 224 228 215 216 237 224